Hourly Weather Roundup
Issued by NWS Central Illinois

Home | Current Version | Previous Version | Text Only | Print | Product List | Glossary On
Versions: 1 2 3 4 5 6 7 8 9 10 11 12 13 14 15 16 17 18 19 20 21 22 23 24 25 26 27 28 29 30 31 32 33 34 35 36 37 38 39 40 41 42 43 44 45 46 47 48 49 50
000
NZUS43 KILX 160510
HWRILX

AREA WEATHER ROUNDUP
NATIONAL WEATHER SERVICE, LINCOLN IL
1200 AM CDT TUE SEP 16 2014


CITY           SKY/WX    TMP DP  RH WIND       PRES   REMARKS
BLOOMINGTON    CLOUDY    53  51  93 N12       30.19R FOG
CHAMPAIGN      CLOUDY    56  55  97 N9        30.16R
DECATUR        CLOUDY    57  53  86 N9        30.17R
FLORA          CLEAR     60  58  92 N10       30.13R
GALESBURG      CLEAR     48  47  95 NW5       30.22R
JACKSONVILLE   CLOUDY    58  56  94 N8        30.20R
LACON          CLEAR     49  48  95 N3        30.19S
LAWRENCEVILLE  CLOUDY    61  60  97 N8        30.11S FOG
LITCHFIELD     MOCLDY    56  55  95 N13       30.16S
$$


CITY           SKY/WX    TMP DP  RH WIND       PRES   REMARKS
LINCOLN        CLOUDY    56  54  95 N8        30.17R FOG
MACOMB         PTCLDY    49  48  95 CALM      30.24R
MATTOON        CLOUDY    58  56  93 N8        30.13S
MT CARMEL AP   CLOUDY    63  61  94 N7        30.11R FOG
OLNEY-NOBLE AP CLOUDY    59  59 100 CALM      30.12S
PARIS          CLOUDY    57  57 100 CALM      30.14S FOG
PEORIA         CLOUDY    55  50  83 N7        30.20R
PONTIAC        CLOUDY    55  55 100 N3        30.17S FOG
RANTOUL        CLOUDY    56  54  90 N7        30.16S
ROBINSON       CLOUDY    61  60  97 N5        30.13R FOG
SPRINGFIELD    PTCLDY    55  53  93 N5        30.19R
TAYLORVILLE    CLOUDY    54  54 100 N9        30.17R
$$

...REGIONAL REPORTS...


CITY           SKY/WX    TMP DP  RH WIND       PRES   REMARKS
CHICAGO O`HARE PTCLDY    52  48  86 NW6       30.18R
KANKAKEE       CLOUDY    55  54  97 CALM      30.17S FOG
MOLINE         CLEAR     47  45  93 CALM      30.21S
MOUNT VERNON   CLOUDY    61  55  82 N5        30.14S
PITTSFIELD     CLOUDY    57  53  86 N6        30.21R
QUINCY         PTCLDY    53  50  89 N9        30.21R
ROCKFORD       CLEAR     45  43  93 W5        30.22R
$$


CITY           SKY/WX    TMP DP  RH WIND       PRES   REMARKS
BURLINGTON     CLEAR     49  48  97 N7        30.22S
CEDAR RAPIDS   CLEAR     45  43  93 NW6       30.23R
DES MOINES     CLEAR     51  46  83 CALM      30.25S
KIRKSVILLE     CLOUDY    55  52  89 N5        30.24S
OTTUMWA        CLEAR     47  44  90 N6        30.24S
ST LOUIS       MOCLDY    60  57  89 N3        30.18R
$$


CITY           SKY/WX    TMP DP  RH WIND       PRES   REMARKS
TERRE HAUTE    CLOUDY    57  56  96 N6        30.12S FOG
EVANSVILLE     LGT RAIN  66  62  87 W5        30.09S
INDIANAPOLIS   DRIZZLE   56  55  97 NE7       30.11S FOG
LAFAYETTE      CLOUDY    55  54  96 N5        30.14R
MADISON        CLEAR     46  43  89 CALM      30.20R
MILWAUKEE      CLEAR     49  46  90 W5        30.17S
$$





USA.gov is the U.S. government's official web portal to all federal, state and local government web resources and services.